GW1912 Weather Reports


time (UTC)temp
C
wind
direction
speed
KPH
gust
KPH
rain 1hr
cm
rain 24hr
cm
rain mn
cm
humidity
%
barometer
mb
20260504110532 7 113 0.0 4.8 0.00 0.00 0.00 82 1007.3
20260504100532 6 100 0.0 3.2 0.00 0.00 0.00 85 1007.3
20260504081541 7 0 0.0 1.6 0.00 0.00 0.00 76 1008.0
20260504081034 7 0 0.0 1.6 0.00 0.00 0.00 76 1008.0
20260504080530 7 0 0.0 1.6 0.00 0.00 0.00 75 1007.8
20260504050532 5 0 0.0 0.0 0.00 0.00 0.00 61 1008.3
20260504045533 5 0 0.0 0.0 0.00 0.00 0.00 61 1008.4
20260504045032 5 0 0.0 0.0 0.00 0.00 0.00 60 1008.5
20260504044542 5 0 0.0 0.0 0.00 0.00 0.00 60 1008.5
20260504044033 5 0 0.0 0.0 0.00 0.00 0.00 61 1008.5
20260504043536 5 0 0.0 0.0 0.00 0.00 0.00 60 1008.5
20260504043043 5 0 0.0 0.0 0.00 0.00 0.00 61 1008.6
20260504042533 5 0 0.0 0.0 0.00 0.00 0.00 63 1008.6
20260504042033 5 0 0.0 0.0 0.00 0.00 0.00 62 1008.7
20260504041545 5 0 0.0 0.0 0.00 0.00 0.00 62 1008.7
20260504041032 5 0 0.0 0.0 0.00 0.00 0.00 62 1008.7
20260504040535 5 0 0.0 0.0 0.00 0.00 0.00 63 1008.7
20260504040045 5 0 0.0 0.0 0.00 0.00 0.00 63 1008.7
20260504035533 5 0 0.0 0.0 0.00 0.00 0.00 64 1008.7
20260504035032 5 0 0.0 1.6 0.00 0.00 0.00 64 1008.7
20260504034554 5 0 0.0 1.6 0.00 0.00 0.00 66 1008.7
20260504034035 4 0 0.0 0.0 0.00 0.00 0.00 66 1008.7
20260504033532 4 0 0.0 0.0 0.00 0.00 0.00 67 1008.7
20260504033055 4 0 0.0 0.0 0.00 0.00 0.00 64 1008.7
20260504032535 4 0 0.0 0.0 0.00 0.00 0.00 64 1008.7
20260504032034 4 0 0.0 0.0 0.00 0.00 0.00 61 1008.6
20260504031559 5 0 0.0 0.0 0.00 0.00 0.00 61 1008.6
20260504031032 4 0 0.0 1.6 0.00 0.00 0.00 61 1008.7
20260504030532 5 0 0.0 1.6 0.00 0.00 0.00 61 1008.7
20260504030101 5 0 0.0 1.6 0.00 0.00 0.00 60 1008.7
20260504025532 5 0 0.0 1.6 0.00 0.00 0.00 60 1008.7
20260504025034 5 0 0.0 1.6 0.00 0.00 0.00 61 1008.8
20260504024549 5 0 0.0 1.6 0.00 0.00 0.00 63 1008.8
20260504024032 5 0 0.0 1.6 0.00 0.00 0.00 63 1008.9
20260504023532 5 0 0.0 0.0 0.00 0.00 0.00 62 1009.0
20260504023041 5 0 0.0 0.0 0.00 0.00 0.00 63 1009.0
20260504022535 5 0 0.0 0.0 0.00 0.00 0.00 62 1009.1
20260504022032 5 0 0.0 0.0 0.00 0.00 0.00 62 1009.1
20260504021544 5 0 0.0 0.0 0.00 0.00 0.00 62 1009.1
20260504021031 5 0 0.0 0.0 0.00 0.00 0.00 62 1009.1
20260504020531 5 0 0.0 0.0 0.00 0.00 0.00 63 1009.1
20260504020046 5 0 0.0 0.0 0.00 0.00 0.00 64 1009.1
20260504015532 5 0 0.0 0.0 0.00 0.00 0.00 63 1009.1
20260504015035 5 0 0.0 0.0 0.00 0.00 0.00 63 1009.2
20260504014545 5 0 0.0 0.0 0.00 0.00 0.00 63 1009.2
20260504014032 5 0 0.0 0.0 0.00 0.00 0.00 63 1009.2
20260504013532 5 0 0.0 0.0 0.00 0.00 0.00 62 1009.2
20260504013043 5 0 0.0 0.0 0.00 0.00 0.00 63 1009.2
20260504012533 5 0 0.0 0.0 0.00 0.00 0.00 61 1009.1
20260504012032 6 0 0.0 0.0 0.00 0.00 0.00 61 1009.2
20260504011537 6 0 0.0 0.0 0.00 0.00 0.00 60 1009.1
20260504011034 6 0 0.0 0.0 0.00 0.00 0.00 59 1008.9
20260504010533 6 0 0.0 0.0 0.00 0.00 0.00 61 1008.9
20260504010044 6 0 0.0 0.0 0.00 0.00 0.00 59 1008.8
20260504005532 6 0 0.0 0.0 0.00 0.03 0.00 59 1008.8
20260504005036 6 0 0.0 0.0 0.00 0.03 0.00 59 1008.7
20260504004543 6 0 0.0 1.6 0.00 0.03 0.00 58 1008.7
20260504004033 6 0 0.0 1.6 0.00 0.03 0.00 58 1008.7
20260504003532 6 0 0.0 0.0 0.00 0.03 0.00 56 1008.6
20260504003044 6 0 0.0 0.0 0.00 0.03 0.00 57 1008.6
20260504002532 7 0 0.0 0.0 0.00 0.03 0.00 57 1008.7
20260504002032 7 0 0.0 0.0 0.00 0.03 0.00 55 1008.6
20260504001543 7 0 0.0 0.0 0.00 0.03 0.00 54 1008.7
20260504001032 7 0 0.0 0.0 0.00 0.03 0.00 54 1008.6
20260504000532 7 0 0.0 0.0 0.00 0.03 0.00 52 1008.6
20260503235532 8 0 0.0 0.0 0.00 0.05 0.00 52 1008.4
20260503235035 8 0 0.0 0.0 0.00 0.05 0.00 50 1008.4
20260503234543 8 0 0.0 0.0 0.00 0.05 0.00 50 1008.5
20260503234032 8 0 0.0 0.0 0.00 0.05 0.00 50 1008.4
20260503233534 9 0 0.0 0.0 0.00 0.05 0.00 49 1008.4
20260503233044 9 0 0.0 0.0 0.00 0.05 0.00 48 1008.3
20260503232533 9 0 0.0 0.0 0.00 0.05 0.00 48 1008.3
20260503232032 9 0 0.0 0.0 0.00 0.05 0.00 49 1008.2
20260503231546 9 0 0.0 0.0 0.00 0.05 0.00 48 1008.2
20260503231032 10 0 0.0 0.0 0.00 0.05 0.00 46 1008.2
20260503230535 10 0 0.0 0.0 0.00 0.05 0.00 48 1008.2
20260503230042 10 0 0.0 0.0 0.00 0.05 0.00 48 1008.2
20260503225532 9 0 0.0 0.0 0.00 0.08 0.00 48 1008.3
20260503225032 9 0 0.0 0.0 0.00 0.08 0.00 48 1008.3
20260503224545 9 0 0.0 0.0 0.00 0.08 0.00 47 1008.3
20260503224034 9 0 0.0 0.0 0.00 0.08 0.00 46 1008.3
20260503223535 9 0 0.0 0.0 0.00 0.08 0.00 46 1008.3
20260503223040 9 0 0.0 0.0 0.00 0.08 0.00 47 1008.4
20260503222533 10 0 0.0 0.0 0.00 0.08 0.00 46 1008.4
20260503222032 9 0 0.0 0.0 0.00 0.08 0.00 46 1008.4
20260503221543 9 0 0.0 0.0 0.00 0.08 0.00 44 1008.5
20260503221033 9 299 0.0 1.6 0.00 0.08 0.00 45 1008.3
20260503220533 9 0 0.0 1.6 0.00 0.08 0.00 45 1008.3
20260503220046 10 0 0.0 1.6 0.00 0.08 0.00 47 1008.2
20260503215535 9 0 0.0 1.6 0.00 0.13 0.00 44 1008.2
20260503215035 10 296 0.0 1.6 0.00 0.13 0.00 47 1008.2
20260503214543 10 0 0.0 1.6 0.00 0.13 0.00 46 1008.1
20260503214032 10 0 0.0 0.0 0.00 0.13 0.00 49 1008.2
20260503213532 10 0 0.0 0.0 0.00 0.13 0.00 46 1008.2
20260503213043 9 0 0.0 0.0 0.00 0.13 0.00 45 1008.1
20260503212536 9 0 0.0 0.0 0.00 0.13 0.00 48 1008.1
20260503212031 9 0 0.0 0.0 0.00 0.13 0.00 48 1008.1
20260503211543 9 0 0.0 1.6 0.00 0.13 0.00 47 1008.1
20260503211034 9 0 0.0 1.6 0.00 0.13 0.00 46 1008.1
20260503210532 9 333 0.0 1.6 0.00 0.13 0.00 46 1008.1
20260503210043 9 330 0.0 3.2 0.00 0.13 0.00 49 1008.0
20260503205534 10 329 0.0 3.2 0.00 0.13 0.00 48 1008.0
20260503205036 10 345 0.0 3.2 0.00 0.13 0.00 48 1008.0
20260503204541 10 335 0.0 1.6 0.00 0.13 0.00 47 1008.0
20260503204032 9 338 0.0 1.6 0.00 0.13 0.00 50 1008.0
20260503203534 9 84 0.0 3.2 0.00 0.13 0.00 47 1008.1
20260503203045 9 345 0.0 3.2 0.00 0.13 0.00 51 1008.0
20260503202549 9 331 0.0 3.2 0.00 0.13 0.00 47 1008.1
20260503202034 9 340 1.6 3.2 0.00 0.13 0.00 48 1008.1
20260503201541 9 343 0.0 1.6 0.00 0.13 0.00 48 1008.1
20260503201034 10 3 0.0 4.8 0.00 0.13 0.00 47 1008.2
20260503200532 10 321 1.6 4.8 0.00 0.13 0.00 49 1008.2
20260503200040 10 5 1.6 4.8 0.00 0.13 0.00 49 1008.2
20260503195533 10 329 1.6 4.8 0.00 0.13 0.00 50 1008.4
20260503195033 9 322 0.0 4.8 0.00 0.13 0.00 53 1008.4
20260503194547 9 338 1.6 4.8 0.00 0.13 0.00 50 1008.5
20260503194033 9 325 1.6 4.8 0.00 0.13 0.00 49 1008.5
20260503193535 9 327 0.0 3.2 0.00 0.13 0.00 51 1008.6
20260503193045 9 317 0.0 4.8 0.00 0.13 0.00 52 1008.7
20260503192533 9 316 1.6 4.8 0.00 0.13 0.00 49 1008.7
20260503192032 9 319 0.0 3.2 0.00 0.13 0.00 49 1008.9
20260503191543 9 316 1.6 3.2 0.00 0.13 0.00 50 1008.9
20260503191033 9 323 0.0 3.2 0.00 0.13 0.00 50 1008.9
20260503190533 9 335 0.0 4.8 0.00 0.13 0.00 50 1009.0
20260503190043 9 352 1.6 4.8 0.00 0.13 0.00 53 1009.0
20260503185532 8 316 1.6 4.8 0.00 0.13 0.00 51 1009.1
20260503185032 8 255 0.0 4.8 0.00 0.13 0.00 52 1009.1
20260503184605 8 131 1.6 4.8 0.00 0.13 0.00 51 1009.2
20260503184032 8 283 0.0 4.8 0.00 0.13 0.00 53 1009.2
20260503183532 8 320 0.0 4.8 0.00 0.13 0.00 53 1009.2
20260503183049 8 320 1.6 4.8 0.00 0.13 0.00 50 1009.2
20260503182533 8 314 1.6 4.8 0.00 0.13 0.00 52 1009.2
20260503182032 8 0 1.6 3.2 0.00 0.13 0.00 51 1009.2
20260503181548 8 249 1.6 4.8 0.00 0.13 0.00 55 1009.2
20260503181034 8 315 0.0 4.8 0.00 0.13 0.00 53 1009.2
20260503180535 8 1 1.6 8.0 0.00 0.13 0.00 50 1009.2
20260503180044 8 249 1.6 8.0 0.00 0.13 0.00 51 1009.2
20260503175532 9 11 0.0 4.8 0.00 0.13 0.00 50 1009.2
20260503175035 9 0 1.6 6.4 0.00 0.13 0.00 51 1009.3
20260503174543 9 326 1.6 6.4 0.00 0.13 0.00 52 1009.3
20260503174034 9 347 1.6 3.2 0.00 0.13 0.00 52 1009.3
20260503173534 9 323 1.6 4.8 0.00 0.13 0.00 52 1009.3
20260503173045 8 341 0.0 4.8 0.00 0.13 0.00 54 1009.4
20260503172532 8 288 1.6 4.8 0.00 0.13 0.00 54 1009.3
20260503172035 8 32 0.0 4.8 0.00 0.13 0.00 52 1009.5
20260503171604 8 324 1.6 6.4 0.00 0.13 0.00 52 1009.4
20260503171032 8 305 1.6 6.4 0.00 0.13 0.00 53 1009.5
20260503170534 8 346 0.0 9.7 0.00 0.13 0.00 53 1009.5
20260503150532 8 328 4.8 8.0 0.00 0.13 0.00 50 1010.2
20260503131035 7 341 3.2 6.4 0.00 0.13 0.00 69 1011.0
20260503130532 7 347 3.2 6.4 0.00 0.13 0.00 70 1011.0